{"data":{"norad_id":55616,"epoch":"2026-09-20T21:10:36.208992Z","epoch_age_seconds":67348,"freshness":"FRESH","line1":"1 55616U 23020AZ  26263.88236353 -.00000082  00000+0  65435-5 0  9995","line2":"2 55616  43.0021 331.7040 0001025 273.3429  86.7305 15.27575062198895","mean_motion":15.27575062,"eccentricity":0.0001025,"inclination_deg":43.0021,"raan_deg":331.704,"arg_perigee_deg":273.3429,"mean_anomaly_deg":86.7305,"bstar":6.5435e-6,"rev_number":19889,"period_min":94.267053437928,"perigee_km":482.36060913749,"apogee_km":483.76715531835,"semimajor_km":6861.2008822279,"source":"CELESTRAK","updated_at":"2026-09-21T09:00:33.275804Z"}}